Location: Newark
(48.6461°N, 4.3644°W)
Time: 01:09:51
(UTC+00:00)

Transit 4A - Pass Details

Date: 01 February 2020
Orbit: 872 x 973 km, 66.8° (Epoch: 19 February)

Event Time Altitude Azimuth Distance (km) Brightness Sun altitude
Rises 03:37:46 0° 155° (SSE) 3,537 - -41.0°
Reaches altitude 10° 03:41:38 10° 131° (SE) 2,579 - -40.4°
Exits shadow 03:41:52 11° 129° (SE) 2,537 10.4 -40.3°
Maximum altitude 03:44:27 14° 103° (ESE) 2,309 10.4 -39.9°
Drops below altitude 10° 03:47:14 10° 74° (ENE) 2,559 10.9 -39.5°
Sets 03:51:02 0° 50° (NE) 3,489 11.7 -38.9°
